Total_Precipitation_Accumulation
0.60 0.60 0.54 0.49 0.43 0.40 0.38 0.34 0.29 0.27 0.25 0.23 0.22 0.22 0.22 0.20 0.19 0.20 0.18 0.13 0.10 0.12 0.19 0.27 0.36 0.43 0.45 0.48 0.47 0.46 0.43 0.37 0.33 0.29 0.26 0.24 0.21 0.19 0.19 0.19 0.20 0.20 0.21
0.70 0.66 0.62 0.59 0.50 0.45 0.41 0.41 0.37 0.37 0.33 0.32 0.26 0.24 0.23 0.22 0.19 0.18 0.18 0.17 0.15 0.13 0.14 0.23 0.34 0.45 0.56 0.65 0.66 0.65 0.57 0.50 0.46 0.43 0.39 0.33 0.29 0.27 0.27 0.26 0.25 0.23 0.22
0.73 0.71 0.69 0.62 0.56 0.54 0.54 0.55 0.53 0.51 0.44 0.40 0.35 0.33 0.32 0.30 0.26 0.23 0.21 0.19 0.20 0.19 0.18 0.21 0.30 0.42 0.58 0.73 0.84 0.88 0.79 0.67 0.57 0.52 0.50 0.45 0.40 0.37 0.36 0.36 0.35 0.32 0.30
0.84 0.82 0.80 0.75 0.71 0.70 0.68 0.66 0.63 0.61 0.52 0.46 0.43 0.42 0.40 0.38 0.35 0.33 0.31 0.28 0.26 0.22 0.21 0.23 0.29 0.39 0.52 0.67 0.87 1.00 1.01 0.89 0.72 0.63 0.58 0.55 0.53 0.53 0.53 0.53 0.50 0.45 0.40
0.97 0.93 0.85 0.85 0.88 0.84 0.79 0.77 0.70 0.64 0.56 0.52 0.52 0.49 0.45 0.43 0.39 0.38 0.39 0.39 0.38 0.35 0.31 0.31 0.28 0.28 0.35 0.47 0.64 0.87 1.03 1.01 0.86 0.76 0.70 0.67 0.67 0.64 0.60 0.58 0.56 0.53 0.49
1.06 1.01 0.93 0.93 0.95 0.90 0.79 0.77 0.74 0.71 0.63 0.63 0.62 0.55 0.51 0.48 0.45 0.42 0.41 0.42 0.42 0.41 0.39 0.37 0.34 0.32 0.32 0.36 0.46 0.66 0.87 1.00 0.99 0.89 0.82 0.77 0.74 0.71 0.70 0.68 0.66 0.64 0.61
1.19 1.19 1.10 1.05 1.06 0.99 0.90 0.91 0.95 0.89 0.80 0.81 0.76 0.59 0.50 0.48 0.46 0.44 0.42 0.41 0.38 0.37 0.35 0.34 0.34 0.33 0.33 0.35 0.38 0.48 0.68 0.89 1.01 1.02 0.97 0.92 0.89 0.84 0.85 0.87 0.85 0.82 0.79
1.38 1.36 1.34 1.32 1.26 1.18 1.10 1.06 1.07 1.02 0.95 0.97 0.94 0.86 0.63 0.49 0.42 0.40 0.41 0.40 0.40 0.39 0.36 0.35 0.35 0.34 0.32 0.32 0.34 0.38 0.48 0.68 0.90 1.07 1.14 1.10 1.06 1.03 1.04 1.06 1.09 1.05 1.00
1.61 1.50 1.45 1.50 1.46 1.35 1.25 1.20 1.17 1.15 1.15 1.14 1.09 1.11 0.87 0.61 0.48 0.42 0.39 0.36 0.39 0.44 0.45 0.44 0.40 0.36 0.32 0.30 0.30 0.33 0.36 0.44 0.67 0.96 1.15 1.19 1.16 1.17 1.24 1.29 1.33 1.34 1.30
1.70 1.66 1.61 1.58 1.59 1.55 1.40 1.35 1.34 1.29 1.26 1.22 1.18 1.06 0.97 0.81 0.73 0.56 0.43 0.39 0.38 0.38 0.42 0.44 0.43 0.41 0.41 0.40 0.38 0.38 0.38 0.37 0.49 0.77 1.10 1.29 1.33 1.35 1.43 1.51 1.59 1.65 1.64
1.70 1.64 1.62 1.55 1.49 1.48 1.48 1.45 1.41 1.38 1.28 1.18 1.12 1.06 1.00 0.86 0.73 0.69 0.53 0.41 0.40 0.36 0.36 0.40 0.43 0.44 0.45 0.46 0.45 0.50 0.53 0.49 0.56 0.73 1.00 1.28 1.47 1.59 1.67 1.71 1.72 1.74 1.74
1.75 1.68 1.64 1.55 1.44 1.37 1.34 1.35 1.37 1.37 1.34 1.26 1.18 1.13 1.07 0.99 0.85 0.81 0.75 0.58 0.50 0.43 0.40 0.41 0.43 0.45 0.47 0.50 0.55 0.70 0.69 0.70 0.75 0.88 1.11 1.36 1.54 1.65 1.73 1.82 1.87 1.85 1.81
1.60 1.60 1.59 1.56 1.50 1.45 1.47 1.44 1.42 1.36 1.34 1.30 1.24 1.16 1.11 1.01 0.91 0.90 0.91 0.77 0.64 0.51 0.46 0.44 0.47 0.52 0.55 0.60 0.67 0.87 0.87 0.90 0.93 1.04 1.25 1.43 1.49 1.51 1.54 1.67 1.86 1.97 1.96
1.52 1.53 1.52 1.49 1.49 1.42 1.39 1.40 1.39 1.36 1.35 1.31 1.25 1.17 1.07 0.97 0.94 0.96 1.00 1.05 0.98 0.77 0.62 0.57 0.56 0.64 0.72 0.79 0.93 1.07 0.96 1.09 1.11 1.20 1.34 1.51 1.46 1.34 1.29 1.37 1.52 1.69 1.73
1.45 1.44 1.46 1.39 1.34 1.31 1.27 1.26 1.25 1.20 1.20 1.20 1.15 1.14 1.09 1.02 1.02 1.04 1.10 1.22 1.36 1.27 0.99 0.78 0.75 0.78 0.86 0.95 1.11 1.05 0.97 1.18 1.21 1.20 1.26 1.26 1.20 1.13 1.12 1.14 1.20 1.29 1.34
1.16 1.23 1.27 1.28 1.24 1.24 1.21 1.18 1.13 1.07 1.04 1.00 0.98 1.00 1.03 1.03 1.05 1.07 1.14 1.22 1.32 1.41 1.26 0.92 0.80 0.82 0.93 1.01 1.15 1.06 1.00 1.16 1.12 1.11 1.12 1.07 1.01 0.99 0.98 0.96 0.94 0.96 1.01
0.93 0.99 1.09 1.17 1.16 1.15 1.15 1.12 1.06 1.01 0.97 0.91 0.89 0.91 0.92 0.92 0.98 1.01 1.05 1.13 1.24 1.37 1.42 1.17 0.99 0.97 1.00 1.00 1.00 0.90 0.85 0.87 0.86 0.94 0.90 0.85 0.82 0.81 0.80 0.81 0.82 0.84 0.85
0.85 0.85 0.84 0.87 0.93 0.98 1.01 1.03 1.00 0.95 0.91 0.87 0.84 0.84 0.86 0.88 0.94 0.99 1.05 1.12 1.18 1.25 1.30 1.19 1.01 0.92 0.86 0.79 0.75 0.71 0.65 0.64 0.63 0.75 0.72 0.67 0.65 0.62 0.60 0.62 0.65 0.67 0.68
0.68 0.73 0.72 0.71 0.69 0.70 0.74 0.81 0.86 0.88 0.87 0.85 0.85 0.87 0.87 0.91 0.94 0.98 1.04 1.10 1.11 1.09 1.07 1.00 0.86 0.74 0.68 0.64 0.63 0.60 0.54 0.52 0.50 0.58 0.60 0.57 0.55 0.52 0.49 0.49 0.51 0.53 0.55
0.42 0.46 0.51 0.54 0.57 0.57 0.56 0.59 0.65 0.73 0.80 0.84 0.86 0.88 0.91 0.98 1.05 1.09 1.09 1.08 1.04 1.00 0.94 0.89 0.81 0.71 0.62 0.55 0.55 0.56 0.53 0.46 0.43 0.41 0.48 0.48 0.48 0.47 0.44 0.41 0.39 0.39 0.43
0.23 0.27 0.32 0.36 0.41 0.45 0.48 0.51 0.53 0.58 0.64 0.71 0.82 0.89 0.94 1.03 1.05 1.00 0.91 0.84 0.79 0.78 0.77 0.77 0.72 0.63 0.55 0.50 0.48 0.44 0.43 0.42 0.40 0.36 0.37 0.38 0.37 0.36 0.35 0.36 0.36 0.36 0.37
0.17 0.20 0.24 0.28 0.33 0.38 0.50 0.50 0.46 0.49 0.58 0.64 0.69 0.75 0.81 0.86 0.79 0.75 0.70 0.65 0.65 0.69 0.69 0.63 0.55 0.47 0.39 0.35 0.34 0.39 0.43 0.49 0.49 0.35 0.33 0.34 0.33 0.35 0.32 0.31 0.36 0.37 0.37
0.23 0.24 0.25 0.28 0.32 0.40 0.51 0.51 0.55 0.53 0.57 0.61 0.61 0.59 0.57 0.56 0.56 0.48 0.49 0.49 0.50 0.52 0.49 0.44 0.43 0.36 0.32 0.30 0.36 0.44 0.45 0.45 0.38 0.28 0.33 0.37 0.33 0.32 0.27 0.29 0.36 0.35 0.37
0.40 0.40 0.40 0.41 0.44 0.53 0.59 0.55 0.53 0.49 0.49 0.48 0.45 0.41 0.38 0.37 0.37 0.39 0.41 0.42 0.36 0.32 0.30 0.28 0.26 0.25 0.26 0.31 0.39 0.47 0.47 0.47 0.40 0.34 0.36 0.42 0.35 0.30 0.25 0.25 0.32 0.33 0.36
0.66 0.66 0.66 0.64 0.61 0.60 0.55 0.45 0.38 0.34 0.32 0.30 0.27 0.26 0.26 0.25 0.29 0.34 0.35 0.34 0.32 0.28 0.28 0.29 0.30 0.29 0.32 0.36 0.39 0.45 0.52 0.62 0.56 0.40 0.34 0.36 0.32 0.29 0.28 0.28 0.31 0.37 0.38
0.63 0.61 0.59 0.56 0.50 0.43 0.36 0.28 0.23 0.19 0.18 0.16 0.16 0.16 0.20 0.22 0.29 0.36 0.33 0.31 0.30 0.28 0.29 0.31 0.31 0.30 0.28 0.29 0.35 0.34 0.39 0.61 0.62 0.47 0.28 0.30 0.33 0.39 0.50 0.35 0.31 0.36 0.40